Theta_e
306 307 307 307 307 306 304 303 302 301 301 301 301 302 302 302 302 299 296 300 297 293 293 296 296 294 293 292 288 291 289 292 290 288 289 287 283 287 284 289 284 285 283 283 285 281 276 295 293 287 292 295 295 295
306 307 307 307 307 305 303 302 301 301 301 301 301 302 301 303 304 304 295 301 302 297 294 299 297 298 297 296 294 294 292 291 292 290 290 288 284 286 285 277 292 282 288 285 286 285 295 296 295 298 297 296 296 296
306 306 307 307 306 304 302 301 301 301 300 301 301 301 301 303 304 303 300 299 297 294 293 294 295 300 306 302 303 293 295 296 295 298 293 291 284 287 279 283 288 292 294 287 288 292 294 297 298 297 299 297 298 299
306 306 306 307 305 303 301 300 300 300 300 300 301 301 301 302 303 302 297 298 296 294 288 290 301 298 302 301 304 303 300 300 299 298 293 291 287 291 288 288 288 292 295 293 291 293 295 297 296 298 299 299 298 300
306 306 306 306 303 302 300 300 300 300 300 301 301 302 302 302 302 300 298 299 299 293 288 289 295 300 302 304 302 303 301 297 297 293 291 289 293 292 292 292 290 297 294 289 287 294 294 293 297 300 298 297 299 300
305 306 306 305 302 301 300 300 300 300 300 301 301 301 302 302 301 297 294 303 304 301 291 285 295 296 300 304 302 302 301 299 298 294 292 294 296 293 289 288 293 299 301 300 294 298 297 296 298 300 298 298 300 300
305 306 306 304 301 300 300 299 300 300 300 301 301 301 301 302 300 294 294 300 305 302 292 287 288 299 303 304 302 299 302 298 297 295 292 292 293 294 291 288 295 300 301 299 297 296 294 295 294 299 299 299 301 300
305 306 305 302 300 299 299 299 299 300 300 301 301 301 301 303 302 297 303 304 304 298 295 287 287 292 303 299 297 303 299 298 296 294 294 292 293 295 290 295 300 301 301 298 296 297 296 297 299 298 298 299 297 297
305 305 303 301 299 298 298 299 299 300 301 301 301 302 301 300 299 302 307 307 306 298 289 289 286 284 300 298 300 299 300 291 297 291 292 294 293 290 295 298 299 300 297 295 297 296 296 296 298 297 296 297 295 296
305 304 302 299 298 298 298 298 299 300 300 301 301 298 296 300 307 306 300 296 294 295 293 288 292 288 295 293 293 294 298 292 290 293 296 292 292 300 301 302 301 301 299 297 293 292 294 294 297 296 295 297 296 296
304 302 300 298 298 298 298 298 299 299 301 295 290 292 297 305 298 294 293 291 290 287 290 290 293 291 300 293 292 296 292 295 289 294 292 290 291 297 302 302 304 301 300 298 296 295 296 295 297 296 295 296 296 296
303 301 299 298 297 297 297 298 299 296 294 293 293 295 298 297 295 291 290 294 291 288 293 292 294 296 298 300 294 295 292 293 288 297 293 289 295 299 301 303 302 301 300 298 297 296 297 298 298 297 296 296 295 296
302 300 298 297 297 297 298 298 298 298 298 299 293 292 294 292 285 286 285 289 288 294 295 295 292 296 296 296 292 291 289 288 297 289 289 291 297 301 303 303 302 302 302 301 297 297 298 298 299 297 296 297 295 295
300 298 298 297 297 297 298 299 298 298 295 294 291 281 287 288 290 289 287 289 293 294 292 292 291 293 296 292 291 286 291 292 287 286 287 292 299 302 304 304 302 301 303 300 297 298 298 298 297 299 297 296 295 293
298 298 297 297 297 298 299 298 298 298 295 291 291 281 288 291 292 292 292 291 293 293 291 290 290 291 290 289 289 288 286 285 286 285 291 297 300 302 301 304 302 303 303 300 298 297 298 298 298 297 298 297 296 295
297 296 295 296 297 298 297 297 298 299 296 292 290 287 291 290 289 289 290 289 293 292 292 292 290 288 288 288 286 286 284 283 285 287 296 298 299 302 301 303 305 304 304 301 299 299 299 299 297 297 297 297 296 296
295 292 299 298 298 297 297 295 298 293 291 289 289 293 292 291 289 290 291 291 294 291 287 288 285 282 289 284 283 285 283 285 291 293 297 298 299 300 301 303 304 304 305 303 301 300 299 300 300 299 295 296 296 297
293 297 299 298 297 299 298 296 295 292 288 291 289 292 293 293 291 292 294 296 293 291 290 287 290 285 283 280 281 285 288 293 295 294 296 298 301 301 302 302 303 305 304 304 303 301 300 300 299 297 298 297 296 296
296 297 298 296 295 295 294 294 297 289 290 293 294 294 294 294 296 296 296 296 297 297 293 290 284 282 282 286 285 286 290 291 290 292 295 298 298 300 301 302 303 306 306 304 303 302 299 299 298 297 297 297 296 296
295 295 296 295 294 294 291 293 298 292 289 292 293 293 293 293 295 294 294 293 294 291 286 283 282 284 285 287 289 290 292 290 289 288 289 293 295 296 301 300 301 305 306 305 305 300 299 297 298 298 297 296 296 295
294 296 296 295 294 294 295 294 292 294 293 291 293 293 292 294 292 291 290 292 288 285 284 286 286 288 290 292 292 291 290 289 287 287 286 288 291 295 297 301 303 304 304 304 303 304 303 297 297 298 298 297 296 297
296 298 296 295 293 294 292 296 293 295 292 292 292 293 291 289 290 289 291 287 286 286 288 288 288 290 290 290 289 290 290 289 288 288 289 289 289 292 294 297 300 301 303 304 304 303 304 304 299 300 298 296 296 296
296 296 294 294 290 289 286 296 290 292 288 289 291 288 289 290 292 294 288 289 289 291 290 289 290 290 290 290 290 290 290 288 287 288 289 289 291 293 294 296 299 297 295 297 301 305 306 301 301 299 298 298 297 295
294 293 289 289 288 285 291 289 293 291 290 288 288 285 288 290 293 290 284 287 289 289 288 288 289 288 289 290 289 289 289 289 288 289 290 289 289 289 290 292 294 295 293 293 296 299 303 305 301 301 299 298 297 296
285 285 287 284 290 287 285 287 288 288 285 287 285 286 288 292 286 285 284 286 286 286 286 288 289 289 287 288 289 289 291 290 287 287 289 289 289 288 287 289 290 292 292 290 291 294 297 303 304 305 304 299 296 296
280 285 284 285 287 286 286 284 285 286 286 285 286 290 291 288 284 282 284 286 285 286 288 288 288 287 287 289 288 288 289 291 289 287 289 290 289 287 286 286 286 288 292 291 292 292 293 296 300 305 305 302 291 297
281 282 287 291 291 290 289 289 290 288 285 284 287 287 287 282 281 284 287 289 289 291 290 290 290 289 288 288 288 289 289 289 288 288 291 291 292 290 288 287 286 289 291 292 291 291 291 293 295 301 304 304 304 299
284 286 283 287 289 291 287 288 286 285 286 290 290 285 283 283 282 287 288 291 291 290 289 290 291 291 290 289 289 288 287 287 287 287 289 290 290 289 289 290 291 288 291 291 290 290 290 291 293 296 299 303 304 304
285 289 289 286 288 289 289 287 287 289 292 290 288 286 285 286 289 290 291 291 292 290 287 287 288 290 290 290 290 288 288 286 282 280 279 280 282 284 288 289 290 290 290 289 288 287 288 288 289 292 296 301 306 305
286 291 289 288 286 285 289 292 291 293 293 291 289 288 287 288 290 292 290 289 287 286 286 286 286 286 285 286 286 287 288 287 285 282 279 280 282 285 286 288 288 288 288 288 287 287 286 287 289 294 294 296 303 296
290 290 289 289 287 289 292 294 295 294 293 291 290 286 284 286 287 289 288 288 287 286 285 284 285 286 285 285 284 283 283 286 285 284 283 283 284 285 285 287 288 288 287 286 285 284 284 284 283 284 287 292 298 298
289 288 288 286 288 292 294 292 291 289 289 288 286 286 285 284 282 284 286 287 285 283 283 284 284 285 287 287 286 286 284 285 283 283 283 283 283 284 285 285 287 286 285 284 283 282 282 281 281 280 281 283 286 291
289 290 290 289 288 289 290 287 287 287 287 286 285 286 286 284 280 283 287 288 286 285 284 285 286 287 287 286 286 286 286 287 283 281 282 282 281 281 282 282 284 285 284 283 282 281 280 279 279 279 279 279 280 281
Wind_Speed
11 10 11 11 11 9 9 10 12 12 13 14 14 15 14 12 10 5 7 9 4 5 14 18 19 14 11 6 4 4 7 6 4 3 2 3 3 4 4 5 4 3 3 3 3 4 6 5 8 2 5 14 14 13
11 10 10 11 9 9 9 10 12 13 13 14 15 15 15 15 14 9 5 6 7 6 10 20 24 25 26 25 11 3 3 3 3 4 4 4 4 4 6 4 6 2 4 3 4 6 3 3 6 6 13 13 8 14
12 11 9 10 9 9 9 10 12 13 13 14 15 16 15 17 15 9 5 7 7 8 12 7 10 12 13 17 16 7 3 6 4 2 2 2 3 3 3 5 7 4 4 4 3 6 7 5 5 8 9 10 12 14
11 12 10 9 8 10 11 11 13 14 14 15 16 16 16 17 16 13 7 7 6 4 5 7 12 9 20 14 9 12 11 4 4 2 3 2 3 3 4 9 13 11 5 3 6 9 5 5 7 9 9 7 15 13
11 11 11 8 8 10 11 12 14 15 16 16 17 17 16 16 17 12 9 8 8 5 4 9 20 8 12 6 13 11 8 5 2 2 3 3 3 3 5 7 8 2 4 3 3 4 4 6 8 5 5 9 12 13
11 10 10 9 8 10 12 13 16 17 18 18 18 18 17 17 15 5 3 6 4 3 2 6 7 12 15 5 13 12 10 5 3 2 3 3 3 3 5 5 4 11 13 3 2 4 4 11 9 7 3 10 12 11
11 11 9 10 9 10 12 13 17 19 20 20 20 19 17 15 6 5 3 2 3 3 1 6 6 5 9 4 3 2 4 3 3 2 3 3 4 4 4 8 7 10 9 3 7 2 4 11 10 5 7 9 12 9
11 10 10 10 8 10 13 14 18 21 23 23 21 19 15 16 9 5 3 10 6 1 2 3 7 5 4 4 2 2 2 3 3 2 2 4 3 4 5 9 7 12 6 8 6 3 5 13 4 7 7 7 9 8
11 10 10 9 8 9 12 14 18 22 23 26 22 22 3 3 3 2 4 11 2 1 2 2 4 5 4 2 4 2 3 3 3 4 4 3 4 6 6 2 6 8 5 8 6 5 9 10 9 8 8 9 10 10
11 11 10 8 8 9 11 14 17 21 26 28 5 3 3 3 7 7 2 2 2 1 2 3 4 6 7 4 3 3 3 2 3 6 3 5 5 6 5 6 9 1 9 7 6 8 8 11 8 9 9 8 9 10
12 12 10 8 8 9 11 14 16 21 12 5 5 4 5 6 3 5 4 3 3 2 2 4 5 5 4 4 4 3 4 3 3 1 3 3 1 4 3 4 6 6 8 5 6 3 8 7 9 10 8 9 10 10
14 12 10 9 7 9 10 13 12 7 3 6 6 7 4 3 3 3 3 2 0 1 3 3 4 2 3 4 3 5 4 3 3 3 4 1 8 13 17 7 5 5 8 5 7 7 7 9 10 9 7 8 8 9
15 12 10 9 8 8 10 12 11 12 12 3 4 4 1 3 1 3 3 2 3 0 2 6 6 2 2 0 3 3 5 4 8 2 4 3 11 11 8 5 4 4 7 6 8 8 8 11 11 8 6 7 7 8
14 11 10 9 8 9 11 11 10 7 4 4 5 3 3 3 2 2 5 4 2 3 8 8 5 3 3 2 2 4 5 4 4 4 1 3 14 9 6 4 4 6 6 8 7 10 9 10 10 9 8 7 8 9
13 10 8 9 11 12 12 10 10 3 4 3 1 2 3 3 5 6 6 7 4 5 8 7 9 5 3 2 2 4 4 3 6 5 6 8 13 13 14 10 2 5 3 6 7 7 7 7 9 8 7 7 8 9
11 5 6 10 9 7 7 8 3 4 3 3 4 4 4 4 5 5 5 5 4 3 5 5 3 6 4 4 2 5 6 5 4 6 7 9 14 12 11 15 15 13 5 7 6 6 7 6 7 9 7 7 8 9
11 3 8 13 12 9 6 3 3 5 3 3 4 5 3 3 3 4 2 3 3 5 1 3 5 1 4 3 5 6 5 5 8 10 9 11 12 13 11 10 13 15 4 6 6 7 6 5 5 7 8 7 9 8
3 6 12 11 6 4 3 5 4 4 6 6 5 2 2 1 3 5 6 6 4 4 7 4 3 1 4 5 3 5 9 8 8 10 12 14 8 12 12 12 14 13 13 2 7 6 6 6 5 4 9 8 7 7
5 6 9 6 2 2 4 5 2 4 6 2 3 1 1 2 4 5 6 5 3 1 3 5 7 4 3 3 7 9 10 9 11 11 12 15 16 13 14 16 14 12 14 2 2 4 4 5 4 4 4 5 5 5
1 2 6 4 2 3 4 2 2 3 3 1 1 1 1 1 7 6 4 6 5 4 6 5 3 3 3 5 8 8 8 10 11 12 11 12 13 16 7 9 8 9 9 4 6 4 2 3 3 5 5 4 5 6
7 5 8 4 4 5 4 1 5 4 2 2 2 1 1 6 6 6 5 6 5 4 3 2 3 5 7 7 6 7 8 9 9 8 11 12 13 12 11 9 11 9 8 5 5 8 7 4 4 5 5 5 5 4
3 13 3 5 4 5 3 4 2 2 2 3 2 3 3 3 4 4 4 4 4 2 2 2 4 5 5 8 9 9 10 12 12 8 10 11 9 11 11 11 11 11 7 8 6 7 8 4 2 6 7 6 5 3
4 4 3 6 4 2 6 4 4 5 4 3 1 3 3 3 3 6 3 3 2 2 3 3 5 6 5 5 6 9 11 11 8 8 8 7 8 8 8 9 9 9 10 10 9 7 5 10 2 6 6 6 5 3
1 3 4 4 6 4 4 5 2 1 2 1 2 4 2 3 4 3 3 3 2 3 4 4 4 4 5 7 5 7 8 8 8 7 6 8 8 9 10 9 10 9 9 8 8 10 10 7 7 1 5 8 6 4
3 4 3 5 4 5 6 6 6 3 5 4 4 2 3 3 3 2 4 3 3 3 3 3 4 4 4 4 5 6 8 6 8 8 6 7 7 7 8 8 8 8 10 12 12 12 11 11 8 5 6 6 10 8
4 5 6 7 3 5 6 6 8 6 4 5 5 2 2 4 3 3 3 3 2 1 2 2 3 4 5 4 5 5 7 6 7 7 4 5 6 7 8 9 9 8 9 9 10 13 13 12 12 9 5 5 7 10
4 6 4 5 4 6 3 4 6 3 5 5 4 4 3 4 3 3 4 3 2 2 1 0 2 3 4 4 4 4 6 7 9 6 5 6 5 6 7 8 10 9 10 10 10 11 12 12 11 9 5 2 6 6
5 4 8 7 5 4 3 3 4 6 5 3 3 4 5 3 3 3 3 4 3 3 2 3 2 3 3 4 5 5 5 7 8 9 5 4 6 7 10 8 8 13 10 10 9 10 10 11 11 11 11 7 6 6
5 5 5 6 2 0 3 4 5 4 1 4 3 4 4 3 3 4 4 5 4 4 4 4 4 5 5 4 4 5 5 6 11 17 18 12 12 11 11 10 10 10 10 11 13 10 14 13 13 12 12 10 7 3
5 6 4 6 6 4 3 3 5 6 9 8 7 9 8 6 4 5 6 5 5 5 5 5 5 6 6 6 6 6 5 5 6 6 8 10 10 10 11 11 11 11 10 11 12 14 17 14 12 8 4 7 6 4
4 8 6 4 6 6 6 7 7 8 10 10 11 10 9 6 6 6 6 5 6 6 6 5 4 5 6 6 6 7 7 5 9 9 7 7 8 9 10 10 9 10 10 12 12 13 14 13 12 12 12 11 4 8
5 9 8 5 3 6 6 6 7 8 8 10 10 10 7 4 4 3 3 5 6 5 3 3 4 4 6 5 6 6 7 5 6 7 11 8 8 10 10 9 9 9 11 12 12 13 15 15 13 15 14 16 14 8
7 7 9 7 4 7 5 4 2 4 8 7 7 7 3 3 4 3 3 4 3 3 3 4 4 4 5 7 8 7 9 5 5 9 10 7 6 8 7 8 9 9 11 11 12 13 16 19 17 18 18 18 19 18
Wind_Direction
270 279 289 292 299 305 319 322 321 324 324 326 327 327 330 328 324 329 292 287 273 272 284 272 278 283 302 286 267 320 334 7 304 310 313 321 327 310 331 331 257 191 241 233 225 244 278 194 343 253 318 300 293 306
265 272 276 284 287 299 311 316 315 316 321 321 321 323 318 317 323 329 272 296 321 250 266 294 274 264 256 252 261 196 250 12 288 309 13 314 328 295 331 283 318 292 193 240 222 233 236 325 262 268 290 292 301 299
262 270 274 286 286 296 305 310 310 312 316 317 317 316 314 312 317 320 292 290 288 276 289 263 264 284 243 222 220 233 199 202 225 101 289 277 274 350 289 267 287 297 145 220 210 250 244 291 258 279 295 290 308 297
253 264 267 275 280 292 302 307 309 308 312 312 311 313 308 306 309 309 284 283 281 280 284 288 333 312 302 295 202 198 213 147 143 145 269 246 253 236 263 283 283 263 169 231 238 259 308 248 287 301 308 305 312 306
247 257 269 265 273 287 298 304 307 306 308 310 311 309 309 309 309 303 270 252 240 246 295 301 305 263 307 242 204 180 186 205 206 192 220 253 246 274 243 255 257 54 299 235 253 155 226 300 325 335 331 331 313 311
238 249 264 259 269 285 294 303 305 305 307 310 308 309 310 314 317 297 279 55 272 183 325 304 327 292 297 195 191 182 192 195 191 189 210 238 245 243 265 278 275 23 306 269 29 24 340 333 325 342 305 324 319 316
228 248 249 253 268 286 294 305 307 306 307 307 307 308 307 307 294 253 329 310 32 65 266 292 281 272 299 152 141 170 151 173 176 197 220 243 253 232 247 254 277 324 278 106 84 2 322 349 328 48 17 322 315 320
221 237 235 247 267 285 296 309 308 307 306 305 304 303 300 295 283 261 244 209 145 164 237 286 280 276 29 352 8 36 188 142 193 228 215 229 251 216 255 260 282 280 259 136 118 55 320 311 60 49 9 338 340 348
220 222 225 243 263 283 296 311 310 310 307 303 305 297 263 201 232 355 72 144 57 78 299 268 296 296 342 213 224 168 162 195 166 223 224 208 223 229 231 7 295 302 53 141 95 25 355 339 35 45 14 352 358 355
212 208 215 237 262 285 300 311 314 317 310 305 288 201 142 220 146 136 168 180 150 151 237 277 279 277 311 290 290 327 162 220 231 218 207 211 247 277 189 183 234 329 79 69 51 10 342 4 27 41 23 4 6 1
202 199 209 228 257 284 305 310 320 327 313 353 351 15 305 266 220 215 186 211 139 224 206 241 238 277 259 293 289 249 267 218 257 120 245 227 171 265 145 210 263 91 105 94 103 15 53 8 45 32 13 22 13 10
194 193 203 222 247 276 299 307 320 329 1 312 295 281 258 265 249 287 254 129 245 196 215 258 263 250 284 313 308 314 271 289 263 189 237 49 345 334 326 167 132 92 102 74 85 45 49 45 74 51 15 17 18 9
186 188 202 221 245 273 289 300 302 310 307 238 199 239 214 260 304 254 319 204 310 350 277 281 289 211 18 345 281 302 279 264 319 247 53 339 305 310 315 110 105 98 103 75 91 69 40 58 78 61 46 25 15 18
175 183 208 227 248 269 276 290 305 329 278 241 216 288 233 196 240 313 12 68 221 319 325 309 310 244 176 217 318 287 301 302 303 12 32 304 350 358 284 65 36 36 28 72 95 74 48 61 59 74 67 43 30 27
164 186 219 244 247 256 268 276 301 291 267 268 282 248 234 356 341 11 356 2 48 337 316 314 289 248 175 143 193 290 286 312 23 357 331 357 343 6 10 327 329 301 115 73 93 91 79 65 79 70 84 73 51 47
155 190 225 227 226 211 244 284 253 222 244 262 222 267 284 338 351 5 6 336 344 304 301 286 307 343 40 337 260 13 4 31 348 303 352 352 8 14 31 337 332 314 111 96 83 93 96 78 98 102 88 86 69 63
160 220 181 185 203 234 254 241 220 223 287 260 237 233 272 353 352 325 351 341 344 335 336 300 14 131 303 20 26 17 336 311 319 331 334 352 7 0 357 347 346 337 357 124 123 111 116 123 107 115 107 97 97 81
201 158 163 186 207 184 213 203 252 210 236 228 251 271 3 298 333 28 11 23 24 348 332 357 225 93 25 22 354 320 310 323 333 342 334 331 343 13 359 350 340 350 326 250 119 139 149 157 139 118 126 127 113 105
84 142 179 188 182 243 210 201 244 262 221 306 282 277 307 26 84 59 28 351 321 300 310 17 44 39 2 333 314 309 317 348 337 333 327 330 352 360 360 350 346 342 324 330 112 116 92 93 93 126 87 96 109 115
173 243 207 178 170 252 220 213 163 267 268 305 278 255 29 49 83 69 40 10 42 53 46 50 32 329 293 295 300 311 342 355 342 331 331 335 333 337 3 334 324 309 299 349 11 349 114 89 58 99 115 111 111 117
170 191 186 187 194 235 286 230 200 208 287 265 308 302 161 83 76 62 38 70 46 46 82 64 348 317 326 319 343 349 358 349 340 340 329 325 325 315 327 353 355 347 5 359 25 326 327 136 140 121 110 97 80 79
189 156 172 195 253 205 249 250 271 34 159 252 245 237 114 119 128 114 99 60 69 76 77 23 343 319 334 351 357 356 350 344 342 327 323 320 323 336 349 345 342 346 353 10 358 337 325 324 122 103 113 112 102 115
178 173 232 203 235 170 252 244 194 203 215 193 145 306 143 130 111 95 93 103 110 107 78 22 331 342 342 358 348 5 3 351 340 338 336 329 328 335 340 341 349 8 9 354 344 338 321 298 105 135 131 124 119 116
203 221 219 201 184 225 218 188 249 20 298 195 233 223 152 117 123 95 95 91 92 59 46 355 351 355 347 1 358 7 356 349 345 341 342 341 355 356 353 352 357 3 6 339 347 345 356 345 4 61 149 135 133 150
149 231 162 234 209 221 202 191 152 218 217 168 202 202 164 111 75 51 122 117 94 52 15 354 3 2 354 350 357 1 357 359 353 342 11 358 344 355 4 359 355 357 352 344 346 343 345 341 347 4 324 164 150 168
207 215 198 199 229 204 205 177 190 163 189 193 205 199 91 106 127 126 84 93 100 70 358 352 346 335 346 357 5 352 346 353 4 353 346 25 9 359 350 349 347 352 354 335 331 335 332 330 323 347 301 350 178 159
228 223 199 239 221 219 203 173 145 150 198 182 189 148 150 142 134 96 133 137 177 184 184 289 341 331 325 358 22 23 9 5 2 7 350 357 12 13 351 342 339 337 336 338 338 328 314 314 317 320 323 287 309 203
234 247 217 217 226 197 190 134 164 171 186 210 146 139 135 98 94 120 146 196 164 111 60 30 350 336 348 25 34 30 23 16 357 357 335 12 13 17 359 345 348 331 335 335 328 325 316 310 306 302 304 282 259 301
230 227 232 192 172 138 186 171 201 201 166 132 121 81 86 78 139 177 165 129 104 85 72 32 15 348 8 34 45 31 35 36 15 11 6 355 351 359 354 349 353 351 346 338 333 330 324 311 286 264 256 269 235 247
241 208 205 181 146 194 181 182 240 90 77 89 96 99 99 122 85 70 76 76 76 75 61 40 23 9 8 7 13 20 18 61 49 33 3 350 341 337 339 349 352 353 350 349 345 341 344 343 343 347 262 230 200 173
233 195 195 181 185 183 205 187 104 98 100 106 119 121 126 108 80 55 37 50 77 68 59 36 26 15 9 2 9 3 357 29 34 31 19 355 343 343 342 348 353 359 355 356 358 358 357 360 360 352 352 352 234 191
229 213 185 186 189 202 218 143 126 122 122 110 111 117 122 130 108 74 26 41 73 80 65 33 15 5 2 0 11 357 348 66 42 25 19 7 356 350 349 348 354 8 5 8 11 10 11 14 16 16 13 15 12 10
221 209 181 206 196 149 119 122 73 107 130 130 148 148 102 107 105 110 87 72 68 52 27 17 16 44 16 22 9 354 350 11 91 49 17 5 29 15 13 4 357 13 14 17 20 17 20 23 26 26 27 31 38 35